Home > Weather > Saint Helier > Past weeks

Flag for Jersey Past Weather in Saint Helier, Jersey — Yesterday and Last 2 Weeks

Now
63 °F

Overcast.


Feels Like: 63 °F
Forecast: 60 / 71 °F
Wind: 12 mph from Northwest

Location: Dinard Airport

Current Time: Aug 29, 2016 at 3:18:44 AM

Latest Report: Aug 29, 2016 at 2:30 AM


Visibility: N/A

Pressure: 30.12 "Hg

Humidity: 88%

Dew Point: 59 °F

Location of Saint HelierLocation

Past Weather in Saint Helier — Graph

°F

Saint Helier Temperature Yesterday

Maximum temperature yesterday: 75 °F (at 1:00 PM)
Minimum temperature yesterday: 61 °F (at 1:00 AM)
Average temperature yesterday: 66 °F

High & Low Weather Summary for the Past Weeks

 TemperatureHumidityPressure
High93 °F (Aug 23, 5:00 PM)100% (Aug 14, 2:00 AM)30.33 "Hg (Aug 14, 2:00 AM)
Low54 °F (Aug 14, 5:00 AM)30% (Aug 23, 5:00 PM)29.71 "Hg (Aug 19, 11:00 AM)
Average67 °F78%30.03 "Hg
* Reported Aug 14 2:00 AM — Aug 29 2:00 AM, Saint Helier, Weather by CustomWeather, © 2016

Note: Actual official high and low records may vary slightly from our data, if they occured in-between our weather recording intervals... More about our weather records

Advertising

Saint Helier Weather History for the Previous 24 Hours

Scroll right to see more
 ConditionsComfort  
Time TempWeatherWind HumidityBarometerVisibility
2:00 AM
Mon, Aug 29
63 °FMostly cloudy.10 mph88%30.12 "HgN/A
1:30 AM63 °FOvercast.10 mph88%30.12 "HgN/A
1:00 AM63 °FMostly cloudy.9 mph88%30.12 "HgN/A
12:30 AM63 °FMostly cloudy.8 mph94%30.12 "HgN/A
12:00 AM63 °FMostly cloudy.9 mph94%30.12 "HgN/A
11:30 PM
Sun, Aug 28
63 °FMostly cloudy.8 mph94%30.12 "HgN/A
11:00 PM64 °FMostly cloudy.10 mph83%30.12 "HgN/A
10:30 PM64 °FMostly cloudy.9 mph83%30.09 "HgN/A
10:00 PM64 °FMostly cloudy.9 mph83%30.09 "HgN/A
9:30 PM64 °FPassing clouds.13 mph88%30.09 "HgN/A
9:00 PM64 °FPassing clouds.9 mph88%30.09 "HgN/A
8:30 PM66 °FMostly cloudy.9 mph83%30.07 "HgN/A
8:00 PM66 °FMostly cloudy.8 mph78%30.07 "HgN/A
7:30 PM68 °FMore clouds than sun.9 mph73%30.07 "HgN/A
7:00 PM68 °FOvercast.12 mph73%30.04 "HgN/A
6:30 PM68 °FMostly cloudy.12 mph73%30.04 "HgN/A
6:00 PM68 °FBroken clouds.12 mph78%30.04 "HgN/A
5:30 PM70 °FMostly cloudy.16 mph69%30.04 "HgN/A
5:00 PM70 °FMostly cloudy.17 mph64%30.04 "HgN/A
4:30 PM70 °FBroken clouds.17 mph64%30.04 "HgN/A
4:00 PM72 °FMostly cloudy.16 mph61%30.04 "HgN/A
3:30 PM72 °FMore clouds than sun.17 mph61%30.04 "HgN/A
3:00 PM72 °FOvercast.17 mph57%30.04 "HgN/A
2:30 PM72 °FOvercast.20 mph57%30.04 "HgN/A
2:00 PM72 °FOvercast.20 mph57%30.04 "HgN/A
1:30 PM73 °FPartly sunny.21 mph53%30.01 "HgN/A
1:00 PM75 °FPassing clouds.22 mph47%30.01 "HgN/A
12:30 PM73 °FPartly sunny.20 mph53%30.01 "HgN/A
12:00 PM73 °FScattered clouds.20 mph50%30.01 "HgN/A
11:30 AM72 °FPartly sunny.21 mph53%30.01 "HgN/A
11:00 AM72 °FScattered clouds.22 mph53%30.01 "HgN/A
10:30 AM72 °FPartly sunny.20 mph53%30.01 "HgN/A
10:00 AM70 °FBroken clouds.20 mph60%30.01 "HgN/A
9:30 AM68 °FPassing clouds.16 mph73%30.01 "HgN/A
9:00 AM66 °FBroken clouds.12 mph78%30.01 "HgN/A
8:30 AM66 °FMore clouds than sun.12 mph83%30.01 "HgN/A
8:00 AM63 °FMostly cloudy.9 mph88%30.01 "HgN/A
7:30 AM63 °FMild.9 mph88%30.01 "HgN/A
7:00 AM61 °FPassing clouds.8 mph88%30.01 "HgN/A
6:30 AM61 °FPassing clouds.8 mph88%29.98 "HgN/A
6:00 AM61 °FPassing clouds.9 mph94%29.98 "HgN/A
5:30 AM61 °FPassing clouds.8 mph94%29.98 "HgN/A
5:00 AM61 °FPassing clouds.7 mph94%29.98 "HgN/A
4:30 AM61 °FPartly cloudy.6 mph94%29.98 "HgN/A
4:00 AM61 °FPassing clouds.6 mph94%29.98 "HgN/A
3:30 AM61 °FPassing clouds.7 mph94%29.98 "HgN/A
3:00 AM61 °FPassing clouds.10 mph94%30.01 "HgN/A
Weather by CustomWeather, © 2016

See weather overviewHow to use our weather pages